Location: ????????
(54.6123°N, 39.2099°E)
Time: 13:27:16
(UTC+00:00)

Resurs 1-4 Rocket - Pass Details

Date: 19 May 2025
Orbit: 797 x 813 km, 98.8° (Epoch: 20 June)

Event Time Altitude Azimuth Distance (km) Brightness Sun altitude
Rises 23:13:16 0° 20° (NNE) 3,324 7.3 -11.5°
Reaches altitude 10° 23:15:45 10° 27° (NNE) 2,388 6.1 -11.4°
Maximum altitude 23:20:44 41° 98° (E) 1,154 3.1 -11.0°
Drops below altitude 10° 23:25:39 10° 168° (SSE) 2,367 4.1 -10.7°
Enters shadow 23:26:31 - 171° (S) 2,694 4.4 -10.6°
